Regional Weather Roundup
Issued by NWS Goodland, KS

Home | Current Version | Previous Version | Text Only | Print | Product List | Glossary Off
Versions: 1 2 3 4 5 6 7 8 9 10 11 12 13 14 15 16 17 18 19 20 21 22 23 24 25 26 27 28 29 30 31 32 33 34 35 36 37 38 39 40 41 42 43 44 45 46 47 48 49 50

000
ASUS43 KGLD 220159
RWRGLD

GOODLAND FORECAST AREA HOURLY WEATHER ROUNDUP
NATIONAL WEATHER SERVICE GOODLAND KS
800 PM MDT SAT OCT 21 2017

...OFFICIAL OBSERVATIONS...

CITY           SKY/WX    TMP DP  RH WIND       PRES   REMARKS
GOODLAND KS    CLEAR     41  19  41 NW10      30.05S
HILL CITY KS   CLEAR     42  37  82 NW5       30.02R
IMPERIAL NEB   CLEAR     46  20  35 W9        30.05R
MCCOOK NEB     CLEAR     47  24  40 NW12      30.02R
AKRON CO       CLEAR     42  14  32 NW15      30.12R
BURLINGTON CO  CLEAR     38  14  37 NW8       30.09R
LIMON CO       CLEAR     37  12  35 N9        30.14R
$$

...UNOFFICIAL OBSERVATIONS...

CITY           SKY/WX    TMP DP  RH WIND       PRES   REMARKS
LENORA KS        N/A     43  32  65 NW6         N/A
NORTON KS      CLEAR     43  28  56 CALM      30.01S
SHARON SPRINGS   N/A     43  19  37 NW8         N/A
TRENTON NEB      N/A     43  32  65 NW6         N/A
KIT CARSON CO    N/A     40  13  32 CALM        N/A
YUMA CO        FAIR      37  18  44 W8        30.10S
$$



USA.gov is the U.S. government's official web portal to all federal, state and local government web resources and services.